Regional Weather Roundup
Issued by NWS

Home | Current Version | Previous Version | Text Only | Print | Product List | Glossary Off
Versions: 1 2 3 4 5 6 7 8 9 10 11 12 13 14 15 16 17 18 19 20 21 22 23 24 25 26 27 28 29 30 31 32 33 34 35 36 37 38 39 40 41 42 43 44 45 46 47 48 49 50

000
ASUS43 KLOT 181658
RWRIL

ILLINOIS REGIONAL WEATHER ROUNDUP
NATIONAL WEATHER SERVICE CHICAGO/ROMEOVILLE IL
1200 PM CDT THU SEP 18 2014

NOTE: "FAIR" INDICATES FEW OR NO CLOUDS BELOW 12,000 FEET WITH NO
SIGNIFICANT WEATHER AND/OR OBSTRUCTIONS TO VISIBILITY.

* THESE STATIONS ARE NOT UNDER NWS QUALITY CONTROL. THEY ALSO MAY NOT
  REPORT WEATHER SUCH AS PRECIPITATION OR FOG.

ILZ001-002-007-009-015-016-024-181800-
NORTHWEST ILLINOIS

CITY           SKY/WX    TMP DP  RH WIND       PRES   REMARKS
MOLINE         SUNNY     70  53  54 E12       30.11F
$$

ILZ003-004-008-010-011-017-018-181800-
NORTH CENTRAL ILLINOIS

CITY           SKY/WX    TMP DP  RH WIND       PRES   REMARKS
ROCKFORD       MOSUNNY   62  54  74 E8        30.19F
$$

ILZ005-006-012>014-019>023-181800-
NORTHEAST ILLINOIS

CITY           SKY/WX    TMP DP  RH WIND       PRES   REMARKS
CHICAGO-OHARE  PTSUNNY   67  54  63 NE7       30.15S
CHICAGO-MIDWAY MOSUNNY   70  56  61 NE8       30.14F
AURORA           N/A     66  55  67 MISG      30.16S
WAUKEGAN       CLOUDY    60  53  77 N7        30.17S
DUPAGE AIRPORT PTSUNNY   68  55  63 NE7       30.15S
WHEELING       CLOUDY    66  55  67 N7        30.17F
NORTHERLY ISL    N/A     64  51  62 E6          N/A
$$

LMZ740>746-181800-
SOUTHERN LAKE MICHIGAN

STATION/POSITION SKY/WX   TEMP    WIND        PRES    VSBY  WAVE
                          AIR SEA DIR/SP/G                  HT/PER
                          (F)     (DEG/KT/KT) (MB)    (MI)  (FT/S)
SOUTHERN BUOY              62 63  190/  4/  6 1021.0S         3/ 6
WAUKEGAN HARBOR            59      30/ 12/ 13   N/A
HARRISON CRIB              61      30/  6/  6   N/A
BURNHAM HARBOR             64      80/  5/  7   N/A
CALUMET HARBOR             63      60/  6/  8 1019.8R
MICHIGAN CITY              63     120/  4/  6   N/A
MICHIGAN CITY 6N           64 65  250/  2/  4   N/A           1
ST. JOSEPH                 62 66  270/  2/  6   N/A           0
$$

ILZ025>027-034>036-040-047-049-050-058-095>099-181800-
WEST-CENTRAL ILLINOIS

CITY           SKY/WX    TMP DP  RH WIND       PRES   REMARKS
$$

ILZ028>032-037-038-041>044-048-051>054-059>061-181800-
CENTRAL ILLINOIS

CITY           SKY/WX    TMP DP  RH WIND       PRES   REMARKS
PEORIA         NOT AVBL
SPRINGFIELD    SUNNY     70  55  59 E9G17     30.10F
TAYLORVILLE    NOT AVBL
$$

ILZ033-039-045-046-055>057-062-063-181800-
EAST-CENTRAL ILLINOIS

CITY           SKY/WX    TMP DP  RH WIND       PRES   REMARKS
$$

ILZ079-100>102-181800-
SOUTHWEST ILLINOIS

CITY           SKY/WX    TMP DP  RH WIND       PRES   REMARKS
ALTON          PTSUNNY   68  54  60 E14       30.09S
CAHOKIA*       CLOUDY    70  54  56 E10       30.08S
$$

ILZ064>066-069>071-074>076-080>082-084>086-088>090-092>094-181800-
SOUTH-CENTRAL ILLINOIS

CITY           SKY/WX    TMP DP  RH WIND       PRES   REMARKS
CARBONDALE     PTSUNNY   71  57  61 VRB3      30.06S
MARION         PTSUNNY   70  57  64 N6        30.07R
$$

ILZ067-068-072-073-078-083-087-091-181800-
SOUTHEAST ILLINOIS

CITY           SKY/WX    TMP DP  RH WIND       PRES   REMARKS
LAWRENCEVILLE  MOSUNNY   72  52  49 NE9       30.09S
$$

ABBREVIATIONS USED IN REMARKS
   TC - TEMPERATURE IN CELSIUS
  WCI - WIND CHILL INDEX
   HX - HEAT INDEX
  VSB - VISIBILITY
$$



USA.gov is the U.S. government's official web portal to all federal, state and local government web resources and services.